Вернуться в каталог

COSMOS 2251 DEB

АктивенLEO
NORAD 47119·DEBRIS·🇷🇺 Russia

Запущен Jun 16, 1993 с Plesetsk Cosmodrome

Loading…

Ближайшие Пролёты (ближайшие 24 часа)

TLE

УстаревшееSource: Space-Track

Эпоха: Sep 3, 2026, 14:41 UTC

1 47119U 93036BYM 26246.61186398  .00011322  00000-0  19990-2 0  9994
2 47119  74.0857   7.0558 0087113 330.4387  44.8933 14.65033807640747

Отслеживайте COSMOS 2251 DEB в реальном времени с AllMySat

Download on the App Store